GW1115 Weather Reports


time (UTC)temp
C
wind
direction
speed
KPH
gust
KPH
rain 1hr
cm
rain 24hr
cm
rain mn
cm
humidity
%
barometer
mb
20260504081524 8 182 8.0 14.5 0.00 0.00 0.00 62 1016.7
20260504044537 4 159 1.6 4.8 0.00 0.00 0.00 82 1017.6
20260504043102 3 159 0.0 0.0 0.00 0.00 0.00 85 1017.6
20260504041538 3 159 0.0 3.2 0.00 0.00 0.00 83 1017.4
20260504040019 3 159 0.0 3.2 0.00 0.00 0.00 81 1017.6
20260504034555 3 159 0.0 1.6 0.00 0.00 0.00 79 1017.7
20260504033019 4 159 0.0 3.2 0.00 0.00 0.00 75 1017.6
20260504031602 5 159 0.0 0.0 0.00 0.00 0.00 73 1017.6
20260504030047 6 159 3.2 4.8 0.00 0.00 0.00 69 1017.8
20260504024528 6 159 1.6 6.4 0.00 0.00 0.00 66 1017.9
20260504023059 7 159 4.8 8.0 0.00 0.00 0.00 62 1017.9
20260504023008 7 159 4.8 8.0 0.00 0.00 0.00 62 1017.8
20260504021546 7 189 3.2 4.8 0.00 0.00 0.00 63 1017.8
20260504020021 7 190 1.6 4.8 0.00 0.00 0.00 62 1017.8
20260504014558 8 190 0.0 3.2 0.00 0.00 0.00 61 1017.7
20260504013027 8 195 3.2 4.8 0.00 0.00 0.00 59 1017.7
20260504011505 8 200 1.6 3.2 0.00 0.00 0.00 62 1017.7
20260504010038 8 200 0.0 1.6 0.00 0.00 0.00 61 1017.5
20260504004521 9 200 0.0 0.0 0.00 0.00 0.00 57 1017.4
20260504003059 10 200 1.6 4.8 0.00 0.00 0.00 53 1017.4
20260504003001 10 200 1.6 4.8 0.00 0.00 0.00 51 1017.4
20260504001541 10 200 0.0 4.8 0.00 0.00 0.00 50 1017.4
20260504000010 11 200 1.6 8.0 0.00 0.00 0.00 49 1017.5
20260503234549 11 228 6.4 12.9 0.00 0.00 0.00 47 1017.6
20260503233021 11 234 3.2 14.5 0.00 0.00 0.00 47 1017.6
20260503231602 12 226 9.7 16.1 0.00 0.00 0.00 44 1017.6
20260503230032 12 203 6.4 19.3 0.00 0.00 0.00 44 1017.7
20260503224512 12 261 12.9 29.0 0.00 0.00 0.00 43 1017.7
20260503223041 13 216 12.9 20.9 0.00 0.00 0.00 42 1017.6
20260503221521 13 225 8.0 22.5 0.00 0.00 0.00 44 1017.7
20260503220047 12 190 14.5 19.3 0.00 0.00 0.00 42 1017.7
20260503214540 12 225 9.7 19.3 0.00 0.00 0.00 42 1017.7
20260503213009 12 219 6.4 22.5 0.00 0.00 0.00 44 1017.8
20260503211609 13 270 12.9 24.1 0.00 0.00 0.00 41 1017.7
20260503210027 12 213 9.7 25.7 0.00 0.00 0.00 42 1018.1
20260503204600 13 219 9.7 17.7 0.00 0.00 0.00 44 1018.1
20260503204503 13 161 9.7 19.3 0.00 0.00 0.00 42 1018.2
20260503203031 12 169 12.9 24.1 0.00 0.00 0.00 44 1018.3
20260503201510 12 163 14.5 20.9 0.00 0.00 0.00 42 1018.4
20260503200054 12 240 12.9 27.4 0.00 0.00 0.00 44 1018.7
20260503194523 13 241 4.8 22.5 0.00 0.00 0.00 50 1018.9
20260503193101 12 250 8.0 17.7 0.00 0.00 0.00 44 1019.1
20260503191542 11 213 9.7 20.9 0.00 0.00 0.00 45 1019.3
20260503190008 12 259 8.0 19.3 0.00 0.00 0.00 48 1019.4
20260503184557 11 196 6.4 16.1 0.00 0.00 0.00 48 1019.5
20260503183019 12 263 6.4 20.9 0.00 0.00 0.00 48 1019.7
20260503181610 11 236 11.3 24.1 0.00 0.00 0.00 47 1019.9
20260503180041 11 245 11.3 24.1 0.00 0.00 0.00 51 1019.9
20260503174506 11 219 14.5 33.8 0.00 0.00 0.00 53 1020.3
20260503173043 10 205 9.7 20.9 0.00 0.00 0.00 50 1020.6
20260503171512 10 181 14.5 20.9 0.00 0.00 0.00 51 1020.6